Netzbetreibername:;Stadtwerke Gotha NETZ GmbH;;
Netz- oder Umspannebene:;alle;;
Lastgangtyp:;Summenlast der Netzverluste;;
gesetzliche Grundlage:;� 23c Abs. 3 Nr. 3 EnWG;;
Einheit:;kW;;
Betrachtungszeitraum:;01.01.2023;bis;31.12.2023
;;;
;;;
;;;
;;;
Datum;Wert;;
01.01.2023 00:15;612;;
01.01.2023 00:30;606;;
01.01.2023 00:45;600;;
01.01.2023 01:00;602;;
01.01.2023 01:15;593;;
01.01.2023 01:30;587;;
01.01.2023 01:45;579;;
01.01.2023 02:00;564;;
01.01.2023 02:15;560;;
01.01.2023 02:30;543;;
01.01.2023 02:45;530;;
01.01.2023 03:00;520;;
01.01.2023 03:15;515;;
01.01.2023 03:30;505;;
01.01.2023 03:45;499;;
01.01.2023 04:00;493;;
01.01.2023 04:15;494;;
01.01.2023 04:30;491;;
01.01.2023 04:45;487;;
01.01.2023 05:00;491;;
01.01.2023 05:15;499;;
01.01.2023 05:30;492;;
01.01.2023 05:45;499;;
01.01.2023 06:00;506;;
01.01.2023 06:15;502;;
01.01.2023 06:30;504;;
01.01.2023 06:45;511;;
01.01.2023 07:00;513;;
01.01.2023 07:15;525;;
01.01.2023 07:30;532;;
01.01.2023 07:45;540;;
01.01.2023 08:00;563;;
01.01.2023 08:15;573;;
01.01.2023 08:30;593;;
01.01.2023 08:45;622;;
01.01.2023 09:00;639;;
01.01.2023 09:15;651;;
01.01.2023 09:30;662;;
01.01.2023 09:45;693;;
01.01.2023 10:00;730;;
01.01.2023 10:15;738;;
01.01.2023 10:30;752;;
01.01.2023 10:45;778;;
01.01.2023 11:00;804;;
01.01.2023 11:15;868;;
01.01.2023 11:30;927;;
01.01.2023 11:45;965;;
01.01.2023 12:00;963;;
01.01.2023 12:15;931;;
01.01.2023 12:30;920;;
01.01.2023 12:45;895;;
01.01.2023 13:00;868;;
01.01.2023 13:15;842;;
01.01.2023 13:30;826;;
01.01.2023 13:45;818;;
01.01.2023 14:00;814;;
01.01.2023 14:15;818;;
01.01.2023 14:30;820;;
01.01.2023 14:45;813;;
01.01.2023 15:00;819;;
01.01.2023 15:15;818;;
01.01.2023 15:30;809;;
01.01.2023 15:45;801;;
01.01.2023 16:00;795;;
01.01.2023 16:15;814;;
01.01.2023 16:30;827;;
01.01.2023 16:45;870;;
01.01.2023 17:00;917;;
01.01.2023 17:15;936;;
01.01.2023 17:30;963;;
01.01.2023 17:45;986;;
01.01.2023 18:00;994;;
01.01.2023 18:15;1002;;
01.01.2023 18:30;1001;;
01.01.2023 18:45;996;;
01.01.2023 19:00;986;;
01.01.2023 19:15;963;;
01.01.2023 19:30;934;;
01.01.2023 19:45;911;;
01.01.2023 20:00;893;;
01.01.2023 20:15;884;;
01.01.2023 20:30;855;;
01.01.2023 20:45;833;;
01.01.2023 21:00;813;;
01.01.2023 21:15;787;;
01.01.2023 21:30;765;;
01.01.2023 21:45;752;;
01.01.2023 22:00;740;;
01.01.2023 22:15;713;;
01.01.2023 22:30;689;;
01.01.2023 22:45;672;;
01.01.2023 23:00;656;;
01.01.2023 23:15;628;;
01.01.2023 23:30;608;;
01.01.2023 23:45;591;;
02.01.2023 00:00;570;;
02.01.2023 00:15;548;;
02.01.2023 00:30;535;;
02.01.2023 00:45;525;;
02.01.2023 01:00;518;;
02.01.2023 01:15;510;;
02.01.2023 01:30;504;;
02.01.2023 01:45;495;;
02.01.2023 02:00;488;;
02.01.2023 02:15;488;;
02.01.2023 02:30;480;;
02.01.2023 02:45;476;;
02.01.2023 03:00;475;;
02.01.2023 03:15;476;;
02.01.2023 03:30;488;;
02.01.2023 03:45;493;;
02.01.2023 04:00;497;;
02.01.2023 04:15;687;;
02.01.2023 04:30;687;;
02.01.2023 04:45;695;;
02.01.2023 05:00;690;;
02.01.2023 05:15;629;;
02.01.2023 05:30;609;;
02.01.2023 05:45;643;;
02.01.2023 06:00;683;;
02.01.2023 06:15;734;;
02.01.2023 06:30;766;;
02.01.2023 06:45;789;;
02.01.2023 07:00;811;;
02.01.2023 07:15;857;;
02.01.2023 07:30;878;;
02.01.2023 07:45;913;;
02.01.2023 08:00;946;;
02.01.2023 08:15;975;;
02.01.2023 08:30;1002;;
02.01.2023 08:45;1021;;
02.01.2023 09:00;1031;;
02.01.2023 09:15;1068;;
02.01.2023 09:30;1056;;
02.01.2023 09:45;1060;;
02.01.2023 10:00;1071;;
02.01.2023 10:15;1056;;
02.01.2023 10:30;1052;;
02.01.2023 10:45;1075;;
02.01.2023 11:00;1094;;
02.01.2023 11:15;1116;;
02.01.2023 11:30;1136;;
02.01.2023 11:45;1153;;
02.01.2023 12:00;1168;;
02.01.2023 12:15;1132;;
02.01.2023 12:30;1124;;
02.01.2023 12:45;1132;;
02.01.2023 13:00;1099;;
02.01.2023 13:15;1088;;
02.01.2023 13:30;1064;;
02.01.2023 13:45;1069;;
02.01.2023 14:00;1056;;
02.01.2023 14:15;1046;;
02.01.2023 14:30;1039;;
02.01.2023 14:45;1041;;
02.01.2023 15:00;1037;;
02.01.2023 15:15;1037;;
02.01.2023 15:30;1044;;
02.01.2023 15:45;1021;;
02.01.2023 16:00;1016;;
02.01.2023 16:15;1035;;
02.01.2023 16:30;1053;;
02.01.2023 16:45;1085;;
02.01.2023 17:00;1119;;
02.01.2023 17:15;1133;;
02.01.2023 17:30;1146;;
02.01.2023 17:45;1155;;
02.01.2023 18:00;1172;;
02.01.2023 18:15;1162;;
02.01.2023 18:30;1163;;
02.01.2023 18:45;1134;;
02.01.2023 19:00;1121;;
02.01.2023 19:15;1106;;
02.01.2023 19:30;1078;;
02.01.2023 19:45;1048;;
02.01.2023 20:00;1027;;
02.01.2023 20:15;1003;;
02.01.2023 20:30;952;;
02.01.2023 20:45;930;;
02.01.2023 21:00;902;;
02.01.2023 21:15;881;;
02.01.2023 21:30;859;;
02.01.2023 21:45;829;;
02.01.2023 22:00;812;;
02.01.2023 22:15;784;;
02.01.2023 22:30;750;;
02.01.2023 22:45;722;;
02.01.2023 23:00;701;;
02.01.2023 23:15;675;;
02.01.2023 23:30;657;;
02.01.2023 23:45;638;;
03.01.2023 00:00;621;;
03.01.2023 00:15;600;;
03.01.2023 00:30;584;;
03.01.2023 00:45;575;;
03.01.2023 01:00;565;;
03.01.2023 01:15;556;;
03.01.2023 01:30;552;;
03.01.2023 01:45;537;;
03.01.2023 02:00;536;;
03.01.2023 02:15;529;;
03.01.2023 02:30;526;;
03.01.2023 02:45;525;;
03.01.2023 03:00;526;;
03.01.2023 03:15;533;;
03.01.2023 03:30;543;;
03.01.2023 03:45;553;;
03.01.2023 04:00;557;;
03.01.2023 04:15;574;;
03.01.2023 04:30;579;;
03.01.2023 04:45;584;;
03.01.2023 05:00;590;;
03.01.2023 05:15;617;;
03.01.2023 05:30;640;;
03.01.2023 05:45;676;;
03.01.2023 06:00;726;;
03.01.2023 06:15;779;;
03.01.2023 06:30;797;;
03.01.2023 06:45;823;;
03.01.2023 07:00;861;;
03.01.2023 07:15;901;;
03.01.2023 07:30;931;;
03.01.2023 07:45;968;;
03.01.2023 08:00;1005;;
03.01.2023 08:15;1032;;
03.01.2023 08:30;1054;;
03.01.2023 08:45;1080;;
03.01.2023 09:00;1102;;
03.01.2023 09:15;1123;;
03.01.2023 09:30;1115;;
03.01.2023 09:45;1097;;
03.01.2023 10:00;1097;;
03.01.2023 10:15;1105;;
03.01.2023 10:30;1103;;
03.01.2023 10:45;1100;;
03.01.2023 11:00;1124;;
03.01.2023 11:15;1150;;
03.01.2023 11:30;1188;;
03.01.2023 11:45;1196;;
03.01.2023 12:00;1190;;
03.01.2023 12:15;1190;;
03.01.2023 12:30;1161;;
03.01.2023 12:45;1132;;
03.01.2023 13:00;1116;;
03.01.2023 13:15;1094;;
03.01.2023 13:30;1088;;
03.01.2023 13:45;1073;;
03.01.2023 14:00;1058;;
03.01.2023 14:15;1052;;
03.01.2023 14:30;1015;;
03.01.2023 14:45;1018;;
03.01.2023 15:00;1030;;
03.01.2023 15:15;1029;;
03.01.2023 15:30;1019;;
03.01.2023 15:45;1036;;
03.01.2023 16:00;1042;;
03.01.2023 16:15;1048;;
03.01.2023 16:30;1066;;
03.01.2023 16:45;1106;;
03.01.2023 17:00;1149;;
03.01.2023 17:15;1173;;
03.01.2023 17:30;1195;;
03.01.2023 17:45;1197;;
03.01.2023 18:00;1194;;
03.01.2023 18:15;1194;;
03.01.2023 18:30;1180;;
03.01.2023 18:45;1152;;
03.01.2023 19:00;1142;;
03.01.2023 19:15;1122;;
03.01.2023 19:30;1081;;
03.01.2023 19:45;1048;;
03.01.2023 20:00;1035;;
03.01.2023 20:15;1011;;
03.01.2023 20:30;978;;
03.01.2023 20:45;950;;
03.01.2023 21:00;931;;
03.01.2023 21:15;887;;
03.01.2023 21:30;863;;
03.01.2023 21:45;842;;
03.01.2023 22:00;826;;
03.01.2023 22:15;787;;
03.01.2023 22:30;754;;
03.01.2023 22:45;728;;
03.01.2023 23:00;715;;
03.01.2023 23:15;690;;
03.01.2023 23:30;665;;
03.01.2023 23:45;642;;
04.01.2023 00:00;625;;
04.01.2023 00:15;605;;
04.01.2023 00:30;587;;
04.01.2023 00:45;574;;
04.01.2023 01:00;571;;
04.01.2023 01:15;568;;
04.01.2023 01:30;559;;
04.01.2023 01:45;552;;
04.01.2023 02:00;542;;
04.01.2023 02:15;544;;
04.01.2023 02:30;538;;
04.01.2023 02:45;535;;
04.01.2023 03:00;531;;
04.01.2023 03:15;537;;
04.01.2023 03:30;542;;
04.01.2023 03:45;556;;
04.01.2023 04:00;576;;
04.01.2023 04:15;599;;
04.01.2023 04:30;599;;
04.01.2023 04:45;609;;
04.01.2023 05:00;621;;
04.01.2023 05:15;646;;
04.01.2023 05:30;667;;
04.01.2023 05:45;709;;
04.01.2023 06:00;764;;
04.01.2023 06:15;819;;
04.01.2023 06:30;860;;
04.01.2023 06:45;889;;
04.01.2023 07:00;924;;
04.01.2023 07:15;960;;
04.01.2023 07:30;987;;
04.01.2023 07:45;1035;;
04.01.2023 08:00;1074;;
04.01.2023 08:15;1099;;
04.01.2023 08:30;1117;;
04.01.2023 08:45;1133;;
04.01.2023 09:00;1144;;
04.01.2023 09:15;1161;;
04.01.2023 09:30;1172;;
04.01.2023 09:45;1180;;
04.01.2023 10:00;1192;;
04.01.2023 10:15;1216;;
04.01.2023 10:30;1231;;
04.01.2023 10:45;1222;;
04.01.2023 11:00;1231;;
04.01.2023 11:15;1240;;
04.01.2023 11:30;1276;;
04.01.2023 11:45;1300;;
04.01.2023 12:00;1304;;
04.01.2023 12:15;1291;;
04.01.2023 12:30;1275;;
04.01.2023 12:45;1230;;
04.01.2023 13:00;1198;;
04.01.2023 13:15;1192;;
04.01.2023 13:30;1182;;
04.01.2023 13:45;1164;;
04.01.2023 14:00;1165;;
04.01.2023 14:15;1144;;
04.01.2023 14:30;1152;;
04.01.2023 14:45;1159;;
04.01.2023 15:00;1152;;
04.01.2023 15:15;1142;;
04.01.2023 15:30;1138;;
04.01.2023 15:45;1120;;
04.01.2023 16:00;1110;;
04.01.2023 16:15;1124;;
04.01.2023 16:30;1148;;
04.01.2023 16:45;1158;;
04.01.2023 17:00;1186;;
04.01.2023 17:15;1213;;
04.01.2023 17:30;1219;;
04.01.2023 17:45;1236;;
04.01.2023 18:00;1239;;
04.01.2023 18:15;1217;;
04.01.2023 18:30;1201;;
04.01.2023 18:45;1179;;
04.01.2023 19:00;1155;;
04.01.2023 19:15;1146;;
04.01.2023 19:30;1106;;
04.01.2023 19:45;1077;;
04.01.2023 20:00;1063;;
04.01.2023 20:15;1027;;
04.01.2023 20:30;994;;
04.01.2023 20:45;956;;
04.01.2023 21:00;934;;
04.01.2023 21:15;906;;
04.01.2023 21:30;885;;
04.01.2023 21:45;851;;
04.01.2023 22:00;821;;
04.01.2023 22:15;788;;
04.01.2023 22:30;767;;
04.01.2023 22:45;738;;
04.01.2023 23:00;709;;
04.01.2023 23:15;680;;
04.01.2023 23:30;651;;
04.01.2023 23:45;636;;
05.01.2023 00:00;618;;
05.01.2023 00:15;603;;
05.01.2023 00:30;591;;
05.01.2023 00:45;573;;
05.01.2023 01:00;568;;
05.01.2023 01:15;557;;
05.01.2023 01:30;550;;
05.01.2023 01:45;537;;
05.01.2023 02:00;537;;
05.01.2023 02:15;532;;
05.01.2023 02:30;522;;
05.01.2023 02:45;517;;
05.01.2023 03:00;520;;
05.01.2023 03:15;518;;
05.01.2023 03:30;526;;
05.01.2023 03:45;541;;
05.01.2023 04:00;555;;
05.01.2023 04:15;570;;
05.01.2023 04:30;569;;
05.01.2023 04:45;583;;
05.01.2023 05:00;592;;
05.01.2023 05:15;624;;
05.01.2023 05:30;650;;
05.01.2023 05:45;713;;
05.01.2023 06:00;777;;
05.01.2023 06:15;850;;
05.01.2023 06:30;873;;
05.01.2023 06:45;907;;
05.01.2023 07:00;935;;
05.01.2023 07:15;970;;
05.01.2023 07:30;1005;;
05.01.2023 07:45;1045;;
05.01.2023 08:00;1092;;
05.01.2023 08:15;1113;;
05.01.2023 08:30;1131;;
05.01.2023 08:45;1139;;
05.01.2023 09:00;1130;;
05.01.2023 09:15;1143;;
05.01.2023 09:30;1148;;
05.01.2023 09:45;1153;;
05.01.2023 10:00;1143;;
05.01.2023 10:15;1165;;
05.01.2023 10:30;1158;;
05.01.2023 10:45;1170;;
05.01.2023 11:00;1194;;
05.01.2023 11:15;1226;;
05.01.2023 11:30;1237;;
05.01.2023 11:45;1234;;
05.01.2023 12:00;1253;;
05.01.2023 12:15;1228;;
05.01.2023 12:30;1220;;
05.01.2023 12:45;1194;;
05.01.2023 13:00;1186;;
05.01.2023 13:15;1188;;
05.01.2023 13:30;1166;;
05.01.2023 13:45;1139;;
05.01.2023 14:00;1128;;
05.01.2023 14:15;1122;;
05.01.2023 14:30;1114;;
05.01.2023 14:45;1110;;
05.01.2023 15:00;1108;;
05.01.2023 15:15;1097;;
05.01.2023 15:30;1088;;
05.01.2023 15:45;1089;;
05.01.2023 16:00;1086;;
05.01.2023 16:15;1095;;
05.01.2023 16:30;1108;;
05.01.2023 16:45;1143;;
05.01.2023 17:00;1172;;
05.01.2023 17:15;1193;;
05.01.2023 17:30;1205;;
05.01.2023 17:45;1219;;
05.01.2023 18:00;1237;;
05.01.2023 18:15;1223;;
05.01.2023 18:30;1204;;
05.01.2023 18:45;1176;;
05.01.2023 19:00;1149;;
05.01.2023 19:15;1132;;
05.01.2023 19:30;1103;;
05.01.2023 19:45;1082;;
05.01.2023 20:00;1052;;
05.01.2023 20:15;1022;;
05.01.2023 20:30;979;;
05.01.2023 20:45;957;;
05.01.2023 21:00;932;;
05.01.2023 21:15;904;;
05.01.2023 21:30;873;;
05.01.2023 21:45;845;;
05.01.2023 22:00;826;;
05.01.2023 22:15;788;;
05.01.2023 22:30;755;;
05.01.2023 22:45;728;;
05.01.2023 23:00;709;;
05.01.2023 23:15;686;;
05.01.2023 23:30;662;;
05.01.2023 23:45;642;;
06.01.2023 00:00;619;;
06.01.2023 00:15;604;;
06.01.2023 00:30;585;;
06.01.2023 00:45;576;;
06.01.2023 01:00;568;;
06.01.2023 01:15;559;;
06.01.2023 01:30;551;;
06.01.2023 01:45;545;;
06.01.2023 02:00;538;;
06.01.2023 02:15;539;;
06.01.2023 02:30;532;;
06.01.2023 02:45;525;;
06.01.2023 03:00;529;;
06.01.2023 03:15;537;;
06.01.2023 03:30;541;;
06.01.2023 03:45;548;;
06.01.2023 04:00;557;;
06.01.2023 04:15;573;;
06.01.2023 04:30;589;;
06.01.2023 04:45;596;;
06.01.2023 05:00;608;;
06.01.2023 05:15;630;;
06.01.2023 05:30;655;;
06.01.2023 05:45;703;;
06.01.2023 06:00;756;;
06.01.2023 06:15;813;;
06.01.2023 06:30;840;;
06.01.2023 06:45;888;;
06.01.2023 07:00;908;;
06.01.2023 07:15;962;;
06.01.2023 07:30;996;;
06.01.2023 07:45;1040;;
06.01.2023 08:00;1091;;
06.01.2023 08:15;1111;;
06.01.2023 08:30;1125;;
06.01.2023 08:45;1135;;
06.01.2023 09:00;1140;;
06.01.2023 09:15;1169;;
06.01.2023 09:30;1165;;
06.01.2023 09:45;1155;;
06.01.2023 10:00;1166;;
06.01.2023 10:15;1176;;
06.01.2023 10:30;1183;;
06.01.2023 10:45;1190;;
06.01.2023 11:00;1199;;
06.01.2023 11:15;1218;;
06.01.2023 11:30;1251;;
06.01.2023 11:45;1251;;
06.01.2023 12:00;1252;;
06.01.2023 12:15;1230;;
06.01.2023 12:30;1227;;
06.01.2023 12:45;1186;;
06.01.2023 13:00;1148;;
06.01.2023 13:15;1128;;
06.01.2023 13:30;1123;;
06.01.2023 13:45;1121;;
06.01.2023 14:00;1120;;
06.01.2023 14:15;1111;;
06.01.2023 14:30;1108;;
06.01.2023 14:45;1091;;
06.01.2023 15:00;1087;;
06.01.2023 15:15;1090;;
06.01.2023 15:30;1085;;
06.01.2023 15:45;1080;;
06.01.2023 16:00;1072;;
06.01.2023 16:15;1077;;
06.01.2023 16:30;1090;;
06.01.2023 16:45;1104;;
06.01.2023 17:00;1140;;
06.01.2023 17:15;1162;;
06.01.2023 17:30;1169;;
06.01.2023 17:45;1180;;
06.01.2023 18:00;1191;;
06.01.2023 18:15;1176;;
06.01.2023 18:30;1173;;
06.01.2023 18:45;1154;;
06.01.2023 19:00;1139;;
06.01.2023 19:15;1127;;
06.01.2023 19:30;1084;;
06.01.2023 19:45;1053;;
06.01.2023 20:00;1039;;
06.01.2023 20:15;1007;;
06.01.2023 20:30;966;;
06.01.2023 20:45;949;;
06.01.2023 21:00;925;;
06.01.2023 21:15;893;;
06.01.2023 21:30;865;;
06.01.2023 21:45;845;;
06.01.2023 22:00;830;;
06.01.2023 22:15;793;;
06.01.2023 22:30;776;;
06.01.2023 22:45;756;;
06.01.2023 23:00;732;;
06.01.2023 23:15;704;;
06.01.2023 23:30;690;;
06.01.2023 23:45;670;;
07.01.2023 00:00;652;;
07.01.2023 00:15;624;;
07.01.2023 00:30;605;;
07.01.2023 00:45;586;;
07.01.2023 01:00;579;;
07.01.2023 01:15;570;;
07.01.2023 01:30;563;;
07.01.2023 01:45;553;;
07.01.2023 02:00;542;;
07.01.2023 02:15;539;;
07.01.2023 02:30;530;;
07.01.2023 02:45;522;;
07.01.2023 03:00;524;;
07.01.2023 03:15;530;;
07.01.2023 03:30;526;;
07.01.2023 03:45;529;;
07.01.2023 04:00;529;;
07.01.2023 04:15;552;;
07.01.2023 04:30;558;;
07.01.2023 04:45;538;;
07.01.2023 05:00;541;;
07.01.2023 05:15;551;;
07.01.2023 05:30;555;;
07.01.2023 05:45;584;;
07.01.2023 06:00;606;;
07.01.2023 06:15;625;;
07.01.2023 06:30;633;;
07.01.2023 06:45;648;;
07.01.2023 07:00;648;;
07.01.2023 07:15;671;;
07.01.2023 07:30;685;;
07.01.2023 07:45;718;;
07.01.2023 08:00;756;;
07.01.2023 08:15;782;;
07.01.2023 08:30;823;;
07.01.2023 08:45;866;;
07.01.2023 09:00;910;;
07.01.2023 09:15;934;;
07.01.2023 09:30;957;;
07.01.2023 09:45;976;;
07.01.2023 10:00;998;;
07.01.2023 10:15;1019;;
07.01.2023 10:30;1041;;
07.01.2023 10:45;1065;;
07.01.2023 11:00;1071;;
07.01.2023 11:15;1106;;
07.01.2023 11:30;1151;;
07.01.2023 11:45;1158;;
07.01.2023 12:00;1154;;
07.01.2023 12:15;1141;;
07.01.2023 12:30;1111;;
07.01.2023 12:45;1088;;
07.01.2023 13:00;1062;;
07.01.2023 13:15;1017;;
07.01.2023 13:30;1009;;
07.01.2023 13:45;1014;;
07.01.2023 14:00;1004;;
07.01.2023 14:15;988;;
07.01.2023 14:30;989;;
07.01.2023 14:45;982;;
07.01.2023 15:00;971;;
07.01.2023 15:15;967;;
07.01.2023 15:30;955;;
07.01.2023 15:45;963;;
07.01.2023 16:00;954;;
07.01.2023 16:15;967;;
07.01.2023 16:30;983;;
07.01.2023 16:45;994;;
07.01.2023 17:00;1023;;
07.01.2023 17:15;1075;;
07.01.2023 17:30;1082;;
07.01.2023 17:45;1100;;
07.01.2023 18:00;1114;;
07.01.2023 18:15;1128;;
07.01.2023 18:30;1114;;
07.01.2023 18:45;1105;;
07.01.2023 19:00;1094;;
07.01.2023 19:15;1072;;
07.01.2023 19:30;1043;;
07.01.2023 19:45;1021;;
07.01.2023 20:00;998;;
07.01.2023 20:15;965;;
07.01.2023 20:30;929;;
07.01.2023 20:45;892;;
07.01.2023 21:00;867;;
07.01.2023 21:15;844;;
07.01.2023 21:30;826;;
07.01.2023 21:45;801;;
07.01.2023 22:00;790;;
07.01.2023 22:15;769;;
07.01.2023 22:30;755;;
07.01.2023 22:45;734;;
07.01.2023 23:00;713;;
07.01.2023 23:15;697;;
07.01.2023 23:30;675;;
07.01.2023 23:45;652;;
08.01.2023 00:00;640;;
08.01.2023 00:15;621;;
08.01.2023 00:30;606;;
08.01.2023 00:45;595;;
08.01.2023 01:00;587;;
08.01.2023 01:15;571;;
08.01.2023 01:30;558;;
08.01.2023 01:45;551;;
08.01.2023 02:00;535;;
08.01.2023 02:15;530;;
08.01.2023 02:30;522;;
08.01.2023 02:45;518;;
08.01.2023 03:00;512;;
08.01.2023 03:15;514;;
08.01.2023 03:30;515;;
08.01.2023 03:45;517;;
08.01.2023 04:00;515;;
08.01.2023 04:15;521;;
08.01.2023 04:30;517;;
08.01.2023 04:45;510;;
08.01.2023 05:00;521;;
08.01.2023 05:15;531;;
08.01.2023 05:30;530;;
08.01.2023 05:45;537;;
08.01.2023 06:00;545;;
08.01.2023 06:15;545;;
08.01.2023 06:30;548;;
08.01.2023 06:45;562;;
08.01.2023 07:00;579;;
08.01.2023 07:15;598;;
08.01.2023 07:30;616;;
08.01.2023 07:45;639;;
08.01.2023 08:00;667;;
08.01.2023 08:15;697;;
08.01.2023 08:30;720;;
08.01.2023 08:45;760;;
08.01.2023 09:00;797;;
08.01.2023 09:15;823;;
08.01.2023 09:30;848;;
08.01.2023 09:45;873;;
08.01.2023 10:00;891;;
08.01.2023 10:15;917;;
08.01.2023 10:30;953;;
08.01.2023 10:45;1001;;
08.01.2023 11:00;1038;;
08.01.2023 11:15;1081;;
08.01.2023 11:30;1145;;
08.01.2023 11:45;1181;;
08.01.2023 12:00;1182;;
08.01.2023 12:15;1157;;
08.01.2023 12:30;1109;;
08.01.2023 12:45;1069;;
08.01.2023 13:00;1027;;
08.01.2023 13:15;996;;
08.01.2023 13:30;963;;
08.01.2023 13:45;943;;
08.01.2023 14:00;930;;
08.01.2023 14:15;888;;
08.01.2023 14:30;865;;
08.01.2023 14:45;878;;
08.01.2023 15:00;882;;
08.01.2023 15:15;884;;
08.01.2023 15:30;874;;
08.01.2023 15:45;865;;
08.01.2023 16:00;884;;
08.01.2023 16:15;886;;
08.01.2023 16:30;894;;
08.01.2023 16:45;914;;
08.01.2023 17:00;954;;
08.01.2023 17:15;1010;;
08.01.2023 17:30;1045;;
08.01.2023 17:45;1062;;
08.01.2023 18:00;1078;;
08.01.2023 18:15;1097;;
08.01.2023 18:30;1102;;
08.01.2023 18:45;1084;;
08.01.2023 19:00;1059;;
08.01.2023 19:15;1031;;
08.01.2023 19:30;1009;;
08.01.2023 19:45;989;;
08.01.2023 20:00;961;;
08.01.2023 20:15;940;;
08.01.2023 20:30;915;;
08.01.2023 20:45;887;;
08.01.2023 21:00;858;;
08.01.2023 21:15;837;;
08.01.2023 21:30;815;;
08.01.2023 21:45;784;;
08.01.2023 22:00;778;;
08.01.2023 22:15;750;;
08.01.2023 22:30;727;;
08.01.2023 22:45;702;;
08.01.2023 23:00;681;;
08.01.2023 23:15;655;;
08.01.2023 23:30;632;;
08.01.2023 23:45;615;;
09.01.2023 00:00;602;;
09.01.2023 00:15;586;;
09.01.2023 00:30;573;;
09.01.2023 00:45;556;;
09.01.2023 01:00;552;;
09.01.2023 01:15;544;;
09.01.2023 01:30;536;;
09.01.2023 01:45;533;;
09.01.2023 02:00;522;;
09.01.2023 02:15;525;;
09.01.2023 02:30;520;;
09.01.2023 02:45;511;;
09.01.2023 03:00;514;;
09.01.2023 03:15;519;;
09.01.2023 03:30;526;;
09.01.2023 03:45;540;;
09.01.2023 04:00;548;;
09.01.2023 04:15;570;;
09.01.2023 04:30;611;;
09.01.2023 04:45;599;;
09.01.2023 05:00;609;;
09.01.2023 05:15;639;;
09.01.2023 05:30;656;;
09.01.2023 05:45;713;;
09.01.2023 06:00;779;;
09.01.2023 06:15;853;;
09.01.2023 06:30;880;;
09.01.2023 06:45;928;;
09.01.2023 07:00;963;;
09.01.2023 07:15;1003;;
09.01.2023 07:30;1043;;
09.01.2023 07:45;1088;;
09.01.2023 08:00;1137;;
09.01.2023 08:15;1161;;
09.01.2023 08:30;1166;;
09.01.2023 08:45;1182;;
09.01.2023 09:00;1190;;
09.01.2023 09:15;1218;;
09.01.2023 09:30;1206;;
09.01.2023 09:45;1203;;
09.01.2023 10:00;1202;;
09.01.2023 10:15;1207;;
09.01.2023 10:30;1211;;
09.01.2023 10:45;1219;;
09.01.2023 11:00;1223;;
09.01.2023 11:15;1236;;
09.01.2023 11:30;1257;;
09.01.2023 11:45;1277;;
09.01.2023 12:00;1292;;
09.01.2023 12:15;1298;;
09.01.2023 12:30;1283;;
09.01.2023 12:45;1262;;
09.01.2023 13:00;1253;;
09.01.2023 13:15;1236;;
09.01.2023 13:30;1212;;
09.01.2023 13:45;1197;;
09.01.2023 14:00;1172;;
09.01.2023 14:15;1162;;
09.01.2023 14:30;1167;;
09.01.2023 14:45;1144;;
09.01.2023 15:00;1129;;
09.01.2023 15:15;1127;;
09.01.2023 15:30;1118;;
09.01.2023 15:45;1113;;
09.01.2023 16:00;1113;;
09.01.2023 16:15;1119;;
09.01.2023 16:30;1131;;
09.01.2023 16:45;1150;;
09.01.2023 17:00;1207;;
09.01.2023 17:15;1234;;
09.01.2023 17:30;1247;;
09.01.2023 17:45;1259;;
09.01.2023 18:00;1260;;
09.01.2023 18:15;1246;;
09.01.2023 18:30;1225;;
09.01.2023 18:45;1225;;
09.01.2023 19:00;1204;;
09.01.2023 19:15;1200;;
09.01.2023 19:30;1159;;
09.01.2023 19:45;1137;;
09.01.2023 20:00;1108;;
09.01.2023 20:15;1064;;
09.01.2023 20:30;1020;;
09.01.2023 20:45;1000;;
09.01.2023 21:00;973;;
09.01.2023 21:15;942;;
09.01.2023 21:30;908;;
09.01.2023 21:45;884;;
09.01.2023 22:00;870;;
09.01.2023 22:15;833;;
09.01.2023 22:30;808;;
09.01.2023 22:45;780;;
09.01.2023 23:00;759;;
09.01.2023 23:15;728;;
09.01.2023 23:30;704;;
09.01.2023 23:45;683;;
10.01.2023 00:00;667;;
10.01.2023 00:15;651;;
10.01.2023 00:30;637;;
10.01.2023 00:45;627;;
10.01.2023 01:00;627;;
10.01.2023 01:15;611;;
10.01.2023 01:30;604;;
10.01.2023 01:45;590;;
10.01.2023 02:00;588;;
10.01.2023 02:15;594;;
10.01.2023 02:30;582;;
10.01.2023 02:45;586;;
10.01.2023 03:00;583;;
10.01.2023 03:15;588;;
10.01.2023 03:30;591;;
10.01.2023 03:45;605;;
10.01.2023 04:00;612;;
10.01.2023 04:15;633;;
10.01.2023 04:30;637;;
10.01.2023 04:45;651;;
10.01.2023 05:00;664;;
10.01.2023 05:15;705;;
10.01.2023 05:30;728;;
10.01.2023 05:45;779;;
10.01.2023 06:00;828;;
10.01.2023 06:15;883;;
10.01.2023 06:30;926;;
10.01.2023 06:45;962;;
10.01.2023 07:00;1001;;
10.01.2023 07:15;1041;;
10.01.2023 07:30;1078;;
10.01.2023 07:45;1124;;
10.01.2023 08:00;1144;;
10.01.2023 08:15;1176;;
10.01.2023 08:30;1186;;
10.01.2023 08:45;1189;;
10.01.2023 09:00;1186;;
10.01.2023 09:15;1183;;
10.01.2023 09:30;1171;;
10.01.2023 09:45;1191;;
10.01.2023 10:00;1192;;
10.01.2023 10:15;1213;;
10.01.2023 10:30;1217;;
10.01.2023 10:45;1220;;
10.01.2023 11:00;1212;;
10.01.2023 11:15;1231;;
10.01.2023 11:30;1267;;
10.01.2023 11:45;1295;;
10.01.2023 12:00;1262;;
10.01.2023 12:15;1276;;
10.01.2023 12:30;1234;;
10.01.2023 12:45;1197;;
10.01.2023 13:00;1145;;
10.01.2023 13:15;1168;;
10.01.2023 13:30;1181;;
10.01.2023 13:45;1185;;
10.01.2023 14:00;1195;;
10.01.2023 14:15;1174;;
10.01.2023 14:30;1153;;
10.01.2023 14:45;1133;;
10.01.2023 15:00;1140;;
10.01.2023 15:15;1165;;
10.01.2023 15:30;1160;;
10.01.2023 15:45;1155;;
10.01.2023 16:00;1152;;
10.01.2023 16:15;1160;;
10.01.2023 16:30;1174;;
10.01.2023 16:45;1189;;
10.01.2023 17:00;1216;;
10.01.2023 17:15;1242;;
10.01.2023 17:30;1265;;
10.01.2023 17:45;1266;;
10.01.2023 18:00;1279;;
10.01.2023 18:15;1266;;
10.01.2023 18:30;1251;;
10.01.2023 18:45;1218;;
10.01.2023 19:00;1207;;
10.01.2023 19:15;1195;;
10.01.2023 19:30;1155;;
10.01.2023 19:45;1132;;
10.01.2023 20:00;1100;;
10.01.2023 20:15;1077;;
10.01.2023 20:30;1035;;
10.01.2023 20:45;1007;;
10.01.2023 21:00;974;;
10.01.2023 21:15;936;;
10.01.2023 21:30;911;;
10.01.2023 21:45;879;;
10.01.2023 22:00;862;;
10.01.2023 22:15;827;;
10.01.2023 22:30;806;;
10.01.2023 22:45;774;;
10.01.2023 23:00;753;;
10.01.2023 23:15;722;;
10.01.2023 23:30;700;;
10.01.2023 23:45;685;;
11.01.2023 00:00;667;;
11.01.2023 00:15;650;;
11.01.2023 00:30;631;;
11.01.2023 00:45;611;;
11.01.2023 01:00;610;;
11.01.2023 01:15;602;;
11.01.2023 01:30;599;;
11.01.2023 01:45;593;;
11.01.2023 02:00;584;;
11.01.2023 02:15;576;;
11.01.2023 02:30;566;;
11.01.2023 02:45;566;;